Other Public Products
Issued by NWS Grand Forks, ND

Home | Current Version | Previous Version | Graphics & Text | Print | Product List | Glossary On
Versions: 1 2 3 4 5 6 7 8 9 10 11 12 13 14 15 16 17 18 19 20 21 22 23 24 25 26 27 28 29 30 31 32 33 34 35 36 37 38 39 40 41 42 43 44 45 46 47 48 49 50
000
FPUS83 KFGF 291431
OPUFGF
PRAIRIE TO PINES WEATHER ROUNDUP
NATIONAL WEATHER SERVICE EASTERN NORTH DAKOTA/GRAND FORKS ND
900 AM CDT TUE JUL 29 2014

 **SATELLITE DATA USED TO AUGMENT SKY COVER AT AUTOMATED STATIONS**
 *****  WEATHER ACROSS EASTERN NORTH DAKOTA  *****

CITY           SKY/WX    TMP DP  RH WIND       PRES   REMARKS
GRAND FORKS    MOSUNNY   64  57  78 NW5       30.18S
GRAND FORKS AF SUNNY     65  59  78 NW8       30.19S
GRAND CITY NWS   N/A     64 N/A N/A N2          N/A
BUXTON           N/A     68  62  79 NW6         N/A
DEVILS LAKE    SUNNY     64  55  72 NW7       30.20S
FARGO          SUNNY     65  55  70 CALM      30.19S
WAHPETON ARPT  SUNNY     63  54  72 CALM      30.20S
$$

 *****  WEATHER ACROSS CENTRAL AND WESTERN NORTH DAKOTA  *****

CITY           SKY/WX    TMP DP  RH WIND       PRES   REMARKS
JAMESTOWN      SUNNY     65  55  70 VRB6      30.21S
BISMARCK       SUNNY     60  53  77 CALM      30.25R
MINOT          SUNNY     66  56  70 SW3       30.21S
MINOT AFB      SUNNY     66  62  87 SW2       30.21S
GARRISON         N/A     66  60  81 CALM      30.22S
WILLISTON      SUNNY     65  55  70 CALM      30.21S
DICKINSON      SUNNY     63  54  72 S6        30.23R
HETTINGER      SUNNY     63  54  72 SW3       30.26S
$$

 *****  OTHER OBSERVATIONS NORTHEAST NORTH DAKOTA  *****

CITY           SKY/WX    TMP DP  RH WIND       PRES   REMARKS
WALHALLA         N/A     68  59  73 NW5         N/A
LANGDON        FAIR      63  55  77 NW6       30.20F
CAVALIER       FAIR      66  57  72 NW6       30.18S
GRAFTON        FAIR      64  55  72 NW5       30.18S
CANDO          FAIR      64  57  77 NW5       30.22S
FORT TOTTEN      N/A     66  58  75 SW2       29.95
ROLLA          FAIR      66  57  72 NW6       30.23S
RUGBY          FAIR      64  57  77 W3        30.22R
 ***** THE ABOVE OBSERVATIONS ARE NON NWS ARE NOT QUALITY
        CONTROLLED AND MAY MIS-REPORT RAIN FOR SNOW...
$$

 *****  OTHER OBSERVATIONS SOUTHEAST NORTH DAKOTA *****

CITY           SKY/WX    TMP DP  RH WIND       PRES   REMARKS
COOPERSTOWN    NOT AVBL
VALLEY CITY    FAIR      64  57  77 N6        30.21S
OAKES          NOT AVBL
GWINNER        SUNNY     66  55  68 NW5       30.22S
SHEYENNE NWR     N/A     64  55  73 N6        29.95S
BUFFALO        NOT AVBL
WYNDMERE       NOT AVBL
 ***** THE ABOVE OBSERVATIONS ARE NON NWS ARE NOT QUALITY
       CONTROLLED AND MAY MIS-REPORT RAIN FOR SNOW...
$$

  *****  WEATHER ACROSS NORTHERN MINNESOTA  *****

CITY           SKY/WX    TMP DP  RH WIND       PRES   REMARKS
FLAG ISLAND    SUNNY     66  55  68 NW13      30.10F
WARROAD        SUNNY     64  59  82 NW7       30.14F
ROSEAU         SUNNY     66  59  77 W8        30.15S
HALLOCK        SUNNY     64  55  72 N5        30.17S
THF RVR FALLS  SUNNY     64  55  72 NW9       30.18S
HALSTAD          N/A     67  55  65 NW2         N/A
FOSSTON        SUNNY     64  55  72 NW6       30.18F
BAUDETTE       SUNNY     65  58  78 NW7       30.13F
WASKISH        SUNNY     66  57  72 NW6       30.13F
CROOKSTON      SUNNY     63  57  82 CALM      30.18S
$$
  *****  WEATHER ACROSS CENTRAL AND WEST MINNESOTA  *****

CITY           SKY/WX    TMP DP  RH WIND       PRES   REMARKS
BEMIDJI        SUNNY     66  55  68 NW10      30.16S
PARK RAPIDS    SUNNY     65  56  72 NW8       30.17S
WADENA         SUNNY     63  55  77 NW3       30.18S
DETROIT LAKES  SUNNY     63  55  77 NW6       30.20S
MOORHEAD       SUNNY     64  61  88 CALM      30.19F
FERGUS FALLS   SUNNY     66  54  63 N8        30.19S
ELBOW LAKE     FAIR      63  57  82 NW5       30.19S
MORRIS MN      SUNNY     64  59  82 NW5       30.19S
STAPLES        PTSUNNY   64  55  72 NW7       30.17S
WHEATON        SUNNY     63  55  77 W6        30.22S
$$
  *****  WEATHER ELSEWHERE ACROSS MINNESOTA  *****

CITY           SKY/WX    TMP DP  RH WIND       PRES   REMARKS
DULUTH         MOSUNNY   66  55  67 NW9       30.07F
INTRNTL FALLS  SUNNY     65  57  75 NW7       30.08F
ELY            MOSUNNY   63  55  77 NW6       30.07S
CLOQUET        PTSUNNY   64  57  77 W7        30.09S
BRAINERD       SUNNY     65  56  72 NW8       30.16R
HIBBING        PTSUNNY   67  57  70 NW12      30.10S
ALEXANDRIA     SUNNY     66  55  67 N8        30.20S
SAINT CLOUD    SUNNY     68  56  65 NW7       30.15S
MINNEAPOLIS    MOSUNNY   68  57  68 NW6       30.14S
$$

  *****  WEATHER ACROSS SOUTH DAKOTA  *****

CITY           SKY/WX    TMP DP  RH WIND       PRES   REMARKS
SIOUX FALLS    MOSUNNY   64  55  72 NW3       30.23S
BROOKINGS      NOT AVBL
WATERTOWN      SUNNY     63  56  78 NW6       30.23R
HURON          CLOUDY    63  54  72 CALM      30.23S
SISSETON         N/A     67  58  72 N8        30.20S
ABERDEEN       SUNNY     63  53  70 CALM      30.23S
MITCHELL       MOSUNNY   63  56  78 CALM      30.24S
PIERRE         SUNNY     63  54  72 CALM      30.22F
MOBRIDGE       SUNNY     62  57  83 CALM      30.22S
RAPID CITY     CLOUDY    62  55  77 CALM      30.26F
$$

  *****  SOME WEATHER IN NEARBY STATES *****

CITY           SKY/WX    TMP DP  RH WIND       PRES   REMARKS
GLASGOW MT     MOSUNNY   70  51  51 E7        30.21R
GREAT FALLS MT MOSUNNY   66  49  54 W3        30.20S
CHEYENNE WY    MOSUNNY   68  56  65 CALM      30.31S
SCOTTSBLUFF NE CLOUDY    61  58  90 E10       30.27R
OMAHA NE       MOSUNNY   64  58  80 N6        30.21S
DES MOINES IA  MOSUNNY   67  57  70 NW6       30.17R
DAVENPORT IA   SUNNY     64  58  80 NW8       30.13R
CHICAGO IL     PTSUNNY   69  51  52 NW9       30.05R
EAU CLAIRE WI  SUNNY     66  58  75 W6        30.09F
LA CROSSE WI   SUNNY     67  58  72 NW7       30.10S
$$

  *****  SOME NATIONAL WEATHER *****

CITY           SKY/WX    TMP DP  RH WIND       PRES   REMARKS
LA GUARDIA NY  MOSUNNY   69  53  56 NW10      29.85S
RALEIGH NC     MOSUNNY   72  58  61 NE8       29.96F
ATLANTA GA     MOSUNNY   74  62  66 NW10      30.02R
NEW ORLEANS LA CLOUDY    81  68  64 NE7       30.07R
OKLAHOMA CITY  PTSUNNY   78  62  57 SE3       30.18R
ALBUQUERQUE NM MOSUNNY   68  61  78 CALM      30.33R
SALT LAKE CITY CLOUDY    68  63  84 SE3       30.19R
LOS ANGELES CA MOSUNNY   68  63  84 W5        30.03R
BOISE ID       PTSUNNY   76  50  40 CALM      30.11R
SEATTLE WA     SUNNY     65  53  65 CALM      30.14R
$$

*** WEATHER ACROSS MANITOBA...SASKATCHEWAN AND ONTARIO ***
                ***ONTARIO***

CITY           SKY/WX    TMP DP  RH WIND       PRES   REMARKS
GERALDTON      PTSUNNY   59  54  82 N5        29.98R
THUNDER BAY    CLOUDY    59  57  94 SW6       30.00S
SIOUX LOOKOUT  CLOUDY    61  57  88 N5        30.05R
TORONTO        PTSUNNY   64  50  59 NW6       29.94R
BIG TROUT LK   SUNNY     55  50  82 NE5       30.12R
PICKLE LAKE    MOSUNNY   59  50  72 NE10      30.06R
DRYDEN         CLOUDY    61  55  82 W7        30.06S
KENORA         PTSUNNY   63  55  77 NW8       30.11S
$$
                *** MANITOBA***

CITY           SKY/WX    TMP DP  RH WIND       PRES   REMARKS
BRANDON        MOSUNNY   64  57  77 NW6       30.21F
DAUPHIN        SUNNY     64  55  72 W9        30.19S
ISLAND LAKE    PTSUNNY   66  57  72 CALM      30.09S
PILOT MOUND      N/A     61  55  82 NW6         N/A
THE PAS        SUNNY     68  61  77 SW3       30.16S
THOMPSON       MOSUNNY   64  57  77 E5        30.11S
WINNIPEG       SUNNY     66  61  82 NW6       30.17S
LYNN LAKE      SUNNY     70  57  64 CALM      30.13S
CHURCHILL      MOSUNNY   52  48  87 SE5       30.19S
GILLAM         FOG      N/A N/A N/A NE5         N/A  VSB 1
$$
                ***SASKATCHEWAN***

CITY           SKY/WX    TMP DP  RH WIND       PRES   REMARKS
ESTEVAN        MOSUNNY   66  59  77 CALM      30.23R
KINDERSLEY     MOSUNNY   66  59  77 SE9       30.21F
LLOYDMINSTER   MOSUNNY   66  59  77 SE7       30.21S
PRINCE ALBERT  SUNNY     63  63 100 CALM      30.21S
REGINA         SUNNY     66  61  82 N6        30.23S


USA.gov is the U.S. government's official web portal to all federal, state and local government web resources and services.